Погода в Пуэрто-Морелос

Мексика     20°50′47″N   86°52′36″W
темп.,
°C
ветер,
м/с
пор.,
м/с
влажн.,
%
обл.,
%
осадки,
мм/ч
давл.,
гПа
погр.,
м
26 октября, вт
вт2601:00+25юв129413 0.0 1014106
04:00+25юв1295100 0.0 101393
07:00+25юв1195100 0.3 101478
10:00+28юв2491100 2.6 1015472
13:00+28юв1390100 5.6 1013504
16:00+28юв2385100 1.4 1011455
19:00+25юв1293100 1.4 1012112
22:00+25юв239232 0.0 1012123
27 октября, ср
ср2701:00+25юв239457 0.0 1011130
04:00+25ююв24959 0.1 1010161
07:00+25юв249178 0.1 1011155
10:00+30ююв357063 0.1 10121097
13:00+31ююв356085 0.2 10101406
16:00+30ююв456940 0.1 10091120
19:00+26ююв25855 0.1 1009204
22:00+26ююв25885 0.0 1010245
28 октября, чт
чт2801:00+26ююв27895 0.1 1010348
04:00+26ююв258578 0.0 1009267
07:00+27ю2681100 0.1 1011300
10:00+29ююз2475100 0.1 1013575
13:00+31ю336172 0.1 10101293
16:00+31ююв346340 0.0 1008666
19:00+25ссз11936 1.6 101034
22:00+24ссз259638 0.7 1011142
29 октября, пт
пт2901:00+23ссз279832 2.0 1011220
04:00+23с289782 4.0 1011254
07:00+21с269412 4.4 1012145
10:00+24с2690100 1.4 1014497
13:00+29с235498 2.6 10121209
16:00+29ссв2454100 0.2 1011841
19:00+23с2871100 0.2 1013255
22:00+21ссз2578100 0.0 1014109
30 октября, сб
сб3001:00+19ссз248513 0.0 101385
04:00+18зсз12875 0.0 101346
07:00+18зсз12875 0.0 101450
10:00+26зсз24585 0.0 1015763
13:00+30сз25435 0.0 10121866
16:00+30с344511 0.0 10101721
19:00+22с297456 0.0 1013309
22:00+19ссз248762 0.0 101478